[[{"header":{"parameterUnit":"m.s-1","parameterCategory":1,"la1":30.2991,"la2":30.254,"lo1":-89.0895,"lo2":-89.0444,"dy":0.0017,"dx":0.0017,"nx":28,"ny":28,"refTime":"2023-03-31T21:00:00:Z","depth":0,"parameterNumber":2,"parameterNumberName":"U-component_of_WINDS"},"data":[0,0,0,0,0,0,0,0,0,0,0,0,0,0,0,0,0,0,0,0,0,0,0,0,0,0,0,0,0,0,0,0,0,0,0,0,0,0,0,0,0,0,0,0,0,0,0,0,0,0,0,0,0,0,0,0,0,0,-0.277,-0.277,0,-0.2761,-0.2761,-0.2761,-0.2733,-0.2732,-0.2731,-0.2731,-0.2723,-0.2724,-0.2724,0,0,0,0,0,0,0,0,0,0,0,0,0,-0.2762,-0.2762,-0.277,-0.277,-0.2769,-0.2761,-0.2761,-0.2761,-0.2733,-0.2732,-0.2731,-0.273,-0.2723,-0.2724,-0.2724,0,0,0,0,0,0,0,0,0,0,0,0,0,-0.2761,-0.2762,-0.277,-0.2754,-0.2753,-0.2762,-0.2761,-0.2761,-0.2733,-0.2732,-0.2731,-0.273,-0.2723,-0.2724,-0.2724,-0.2748,0,0,-0.2726,-0.2727,0,0,0,0,0,0,0,0,-0.2761,-0.2761,-0.2757,-0.2755,-0.2754,-0.2747,-0.2756,-0.2757,-0.2733,-0.274,-0.2731,-0.273,-0.2732,-0.2732,-0.2733,-0.2747,-0.2747,-0.2726,-0.2727,-0.2727,-0.2727,0,0,0,0,0,0,0,-0.2761,-0.2761,-0.2766,-0.2757,-0.2755,-0.2748,-0.2747,-0.2756,-0.2742,-0.274,-0.2738,-0.2737,-0.2731,-0.2732,-0.2732,-0.2747,-0.2726,-0.2727,-0.2727,-0.2727,-0.2781,-0.2782,0,0,0,0,0,0,-0.2763,-0.2761,-0.2767,-0.2766,-0.2755,-0.2749,-0.2748,-0.275,-0.2742,-0.2739,-0.2738,-0.2736,-0.2731,-0.2732,-0.2732,-0.2759,-0.2727,-0.2728,-0.2728,-0.278,-0.2782,-0.2783,0,0,0,0,0,0,-0.2763,-0.2764,-0.2767,-0.2763,-0.2763,-0.275,-0.2753,-0.2751,-0.2751,-0.274,-0.2738,-0.2741,-0.2731,-0.2731,-0.2744,-0.2759,-0.2728,-0.2728,-0.2779,-0.2781,-0.2782,-0.2815,0,0,0,0,0,0,-0.2763,-0.2764,-0.2772,-0.2764,-0.2763,-0.2779,-0.2754,-0.2751,-0.2752,-0.275,-0.2743,-0.2741,-0.273,-0.2743,-0.2745,-0.2759,-0.2729,-0.2778,-0.278,-0.2782,-0.2812,-0.2817,-0.2821,0,0,0,0,0,-0.2763,-0.2782,-0.2773,-0.2774,-0.2774,-0.278,-0.278,-0.2767,-0.2754,-0.2762,-0.2755,-0.2741,-0.2757,-0.2745,-0.2746,-0.2761,-0.2777,-0.2779,-0.2782,-0.281,-0.2816,-0.2821,0,0,0,0,0,0,-0.2793,-0.278,-0.277,-0.2787,-0.2785,-0.2775,-0.2786,-0.2773,-0.2775,-0.2772,-0.2756,-0.2755,-0.2771,-0.2767,-0.2754,-0.2784,-0.2764,-0.2767,-0.2786,-0.2791,-0.2796,-0.2797,-0.2729,0,0,0,0,0,-0.2802,-0.2807,-0.2796,-0.2812,-0.2811,-0.2799,-0.2801,-0.2791,-0.2788,-0.2787,-0.2781,-0.2779,-0.2784,-0.2787,-0.2791,-0.2811,-0.281,-0.2822,-0.2826,-0.283,-0.2833,-0.2845,-0.285,-0.2791,-0.2791,-0.2791,0,0,-0.2819,-0.2813,-0.2818,-0.2818,-0.2815,-0.2822,-0.2798,-0.2806,-0.2812,-0.2789,-0.2801,-0.2796,-0.2793,-0.281,-0.2817,-0.2808,-0.2849,-0.2833,-0.2836,-0.2837,-0.2848,-0.2853,-0.2858,-0.2792,-0.2792,-0.2792,0,0,-0.2856,-0.2851,-0.2865,-0.2862,-0.2858,-0.2849,-0.2853,-0.2845,-0.2841,-0.2853,-0.2836,-0.2842,-0.285,-0.2848,-0.2849,-0.2885,-0.2872,-0.2886,-0.2911,-0.2922,-0.2927,-0.2931,-0.2945,-0.295,-0.2889,-0.2889,-0.2889,0,-0.2879,-0.2888,-0.2873,-0.2882,-0.2883,-0.2862,-0.2876,-0.2874,-0.2872,-0.2873,-0.2862,-0.2872,-0.2868,-0.2885,-0.2894,-0.2895,-0.2898,-0.2888,-0.2927,-0.2931,-0.2935,-0.2948,-0.2953,-0.2891,-0.2891,-0.2891,-0.2891,0,-0.2917,-0.2924,-0.2935,-0.2933,-0.2935,-0.2947,-0.2934,-0.2937,-0.2927,-0.292,-0.2933,-0.2928,-0.293,-0.2933,-0.2924,-0.2949,-0.2943,-0.293,-0.2911,-0.2943,-0.2955,-0.2959,-0.2894,-0.2893,-0.2893,-0.2892,0,0,-0.2973,-0.2962,-0.2967,-0.2966,-0.2959,-0.2965,-0.2975,-0.2977,-0.2982,-0.298,-0.299,-0.2997,-0.2985,-0.2985,-0.2975,-0.2985,-0.3015,-0.297,-0.297,-0.2979,-0.3044,-0.3055,-0.3061,-0.3006,-0.3007,-0.3008,-0.3045,0,-0.3009,-0.3026,-0.3013,-0.3033,-0.304,-0.302,-0.3029,-0.3027,-0.302,-0.3025,-0.3018,-0.3024,-0.3007,-0.3007,-0.3016,-0.3009,-0.3028,-0.3006,-0.3015,-0.3016,-0.3018,-0.3067,-0.3078,-0.3113,-0.3049,-0.305,-0.305,0,-0.3052,-0.3053,-0.3074,-0.3067,-0.3069,-0.3078,-0.3079,-0.3083,-0.3081,-0.3075,-0.3076,-0.3063,-0.3074,-0.3054,-0.3069,-0.3055,-0.3058,-0.3055,-0.3056,-0.3057,-0.3036,-0.307,-0.3124,-0.313,-0.3057,-0.3057,-0.3056,0,-0.3092,-0.3098,-0.3112,-0.3111,-0.3103,-0.311,-0.3107,-0.3103,-0.3105,-0.3106,-0.3107,-0.311,-0.3111,-0.3114,-0.3102,-0.3089,-0.3119,-0.3098,-0.3116,-0.3116,-0.3124,-0.3124,-0.318,-0.3124,-0.3124,-0.3124,-0.3124,0,-0.3134,-0.3148,-0.3129,-0.3138,-0.3153,-0.3138,-0.3153,-0.3148,-0.3145,-0.3152,-0.3135,-0.3142,-0.3126,-0.3132,-0.3123,-0.3138,-0.3138,-0.3135,-0.3133,-0.3137,-0.3138,-0.3139,-0.3137,-0.3125,-0.3125,-0.3125,-0.3125,0,-0.3181,-0.317,-0.3183,-0.3174,-0.3172,-0.3184,-0.3176,-0.3184,-0.3176,-0.3186,-0.3187,-0.3176,-0.3182,-0.3171,-0.3175,-0.3169,-0.319,-0.3183,-0.3191,-0.3189,-0.3208,-0.3207,-0.3268,-0.3275,-0.3214,-0.3215,-0.3215,0,-0.3209,-0.3219,-0.3211,-0.3215,-0.3213,-0.3219,-0.3221,-0.3206,-0.3209,-0.3207,-0.3215,-0.322,-0.3223,-0.3234,-0.3226,-0.323,-0.3224,-0.3245,-0.3224,-0.3228,-0.3225,-0.3225,-0.3226,-0.3249,-0.325,-0.3251,-0.3251,0,-0.326,-0.3253,-0.3257,-0.3259,-0.3262,-0.3263,-0.3262,-0.3266,-0.3251,-0.3255,-0.3261,-0.3264,-0.3269,-0.3274,-0.3276,-0.3273,-0.326,-0.3258,-0.3262,-0.3267,-0.3272,-0.327,-0.3203,-0.3257,-0.3256,-0.3256,-0.3255,-0.3255,-0.3299,-0.3307,-0.3303,-0.3308,-0.3306,-0.3306,-0.3313,-0.3306,-0.3311,-0.3313,-0.3304,-0.3313,-0.331,-0.3311,-0.331,-0.3316,-0.3307,-0.3313,-0.3315,-0.3317,-0.332,-0.327,-0.3317,-0.3316,-0.3316,-0.3316,-0.3316,0,-0.335,-0.3346,-0.335,-0.335,-0.3354,-0.3341,-0.334,-0.3344,-0.3351,-0.335,-0.3353,-0.336,-0.3365,-0.3358,-0.3362,-0.3369,-0.3363,-0.337,-0.337,-0.337,-0.3328,-0.3324,-0.3375,-0.3375,-0.3375,-0.3375,-0.3375,-0.3375,-0.3376,-0.339,-0.3383,-0.3396,-0.3392,-0.34,-0.3401,-0.3401,-0.3399,-0.3408,-0.3412,-0.3407,-0.3403,-0.3407,-0.3411,-0.3409,-0.3411,-0.3421,-0.3417,-0.3378,-0.3373,-0.3367,-0.3364,-0.3422,-0.3422,-0.3458,-0.3459,-0.3459]},{"header":{"parameterUnit":"m.s-1","parameterCategory":1,"la1":30.2991,"la2":30.254,"lo1":-89.0895,"lo2":-89.0444,"dy":0.0017,"dx":0.0017,"nx":28,"ny":28,"refTime":"2023-03-31T21:00:00:Z","depth":0,"parameterNumber":3,"parameterNumberName":"V-component_of_WINDS"},"data":[0,0,0,0,0,0,0,0,0,0,0,0,0,0,0,0,0,0,0,0,0,0,0,0,0,0,0,0,0,0,0,0,0,0,0,0,0,0,0,0,0,0,0,0,0,0,0,0,0,0,0,0,0,0,0,0,0,0,-2.0838,-2.0839,0,-2.0906,-2.0906,-2.0907,-2.0941,-2.0941,-2.0941,-2.0941,-2.1012,-2.1014,-2.1016,0,0,0,0,0,0,0,0,0,0,0,0,0,-2.0741,-2.0742,-2.0838,-2.0839,-2.084,-2.0906,-2.0907,-2.0907,-2.0941,-2.0941,-2.0941,-2.0941,-2.1011,-2.1014,-2.1016,0,0,0,0,0,0,0,0,0,0,0,0,0,-2.0793,-2.0743,-2.0838,-2.0864,-2.0867,-2.0905,-2.0907,-2.0908,-2.0941,-2.0941,-2.0941,-2.0941,-2.1011,-2.1013,-2.1016,-2.1034,0,0,-2.1025,-2.1026,0,0,0,0,0,0,0,0,-2.079,-2.0797,-2.086,-2.0863,-2.0866,-2.0915,-2.0898,-2.095,-2.0941,-2.0913,-2.0941,-2.0941,-2.098,-2.0985,-2.0998,-2.1037,-2.104,-2.1025,-2.1027,-2.1028,-2.1029,0,0,0,0,0,0,0,-2.0786,-2.0794,-2.0865,-2.0861,-2.0864,-2.0873,-2.0881,-2.0908,-2.0946,-2.0915,-2.0918,-2.0925,-2.0981,-2.0995,-2.1,-2.1041,-2.1025,-2.1028,-2.1029,-2.103,-2.11,-2.11,0,0,0,0,0,0,-2.0778,-2.0791,-2.0863,-2.0867,-2.0827,-2.0875,-2.0884,-2.0899,-2.0945,-2.0952,-2.0925,-2.0927,-2.099,-2.0996,-2.1002,-2.1027,-2.1028,-2.1031,-2.1032,-2.1099,-2.11,-2.11,0,0,0,0,0,0,-2.0776,-2.0784,-2.086,-2.083,-2.084,-2.0877,-2.0894,-2.09,-2.0914,-2.0953,-2.096,-2.0932,-2.099,-2.0998,-2.1026,-2.103,-2.1032,-2.1035,-2.1099,-2.1099,-2.11,-2.1075,0,0,0,0,0,0,-2.0773,-2.0783,-2.079,-2.0829,-2.0841,-2.0882,-2.0894,-2.0902,-2.0919,-2.0921,-2.0961,-2.0968,-2.0991,-2.1021,-2.1029,-2.1034,-2.1037,-2.1099,-2.1099,-2.11,-2.1076,-2.1074,-2.1073,0,0,0,0,0,-2.0769,-2.0781,-2.079,-2.0798,-2.085,-2.0882,-2.0889,-2.0915,-2.0919,-2.0926,-2.0951,-2.0966,-2.1028,-2.1024,-2.1032,-2.1038,-2.1099,-2.1099,-2.11,-2.1076,-2.1075,-2.1073,0,0,0,0,0,0,-2.0741,-2.0786,-2.0797,-2.0821,-2.0847,-2.0887,-2.0897,-2.0912,-2.0938,-2.0939,-2.0971,-2.098,-2.1004,-2.1024,-2.1019,-2.1058,-2.1065,-2.1067,-2.1044,-2.1043,-2.1042,-2.1037,-2.1039,0,0,0,0,0,-2.0738,-2.0759,-2.0797,-2.0815,-2.0827,-2.086,-2.0875,-2.0892,-2.0921,-2.0932,-2.0959,-2.0987,-2.1013,-2.1029,-2.1055,-2.1079,-2.1088,-2.1087,-2.1086,-2.1084,-2.1086,-2.1101,-2.1101,-2.1101,-2.1101,-2.1101,0,0,-2.0731,-2.0758,-2.077,-2.081,-2.0832,-2.0854,-2.0869,-2.0892,-2.0908,-2.0936,-2.0963,-2.0984,-2.1017,-2.1043,-2.1056,-2.106,-2.1088,-2.1085,-2.1084,-2.1086,-2.1101,-2.1101,-2.1101,-2.1101,-2.1101,-2.1101,0,0,-2.073,-2.0752,-2.077,-2.0791,-2.0825,-2.0846,-2.085,-2.0888,-2.0903,-2.0931,-2.0952,-2.0973,-2.1016,-2.1039,-2.1056,-2.1064,-2.1079,-2.1071,-2.1065,-2.1079,-2.1079,-2.1079,-2.1082,-2.1083,-2.1073,-2.1073,-2.1073,0,-2.0718,-2.0751,-2.0777,-2.0798,-2.0816,-2.0841,-2.0859,-2.0879,-2.092,-2.0931,-2.0936,-2.0991,-2.1015,-2.1046,-2.1048,-2.1061,-2.1068,-2.1067,-2.1077,-2.1077,-2.1078,-2.1081,-2.1082,-2.1071,-2.1072,-2.1072,-2.1072,0,-2.0734,-2.0757,-2.0767,-2.0804,-2.0823,-2.0843,-2.0873,-2.0888,-2.0904,-2.0926,-2.0954,-2.0984,-2.1016,-2.1025,-2.1041,-2.1059,-2.1061,-2.107,-2.1078,-2.1076,-2.108,-2.1081,-2.107,-2.107,-2.1071,-2.1071,0,0,-2.0717,-2.0769,-2.0772,-2.079,-2.0828,-2.0847,-2.0868,-2.0899,-2.0912,-2.0939,-2.0958,-2.0994,-2.1003,-2.1022,-2.1041,-2.1053,-2.1058,-2.1062,-2.1063,-2.106,-2.1081,-2.1073,-2.1074,-2.1068,-2.1069,-2.1069,-2.1078,0,-2.0722,-2.076,-2.0785,-2.0813,-2.0835,-2.0859,-2.0878,-2.0904,-2.0924,-2.0946,-2.097,-2.0995,-2.1004,-2.1016,-2.1029,-2.1055,-2.1063,-2.1054,-2.1087,-2.1088,-2.1078,-2.1076,-2.1069,-2.1076,-2.1079,-2.108,-2.108,0,-2.0733,-2.0758,-2.0789,-2.0825,-2.0835,-2.0851,-2.0882,-2.0902,-2.0932,-2.0947,-2.0968,-2.0987,-2.1011,-2.1016,-2.1051,-2.1044,-2.1059,-2.1074,-2.1075,-2.1079,-2.1084,-2.1081,-2.1078,-2.108,-2.1082,-2.1082,-2.1082,0,-2.0718,-2.076,-2.0784,-2.0798,-2.0841,-2.0852,-2.087,-2.09,-2.0917,-2.0944,-2.0956,-2.0985,-2.1002,-2.1024,-2.1051,-2.1052,-2.1083,-2.109,-2.1096,-2.1095,-2.1102,-2.1101,-2.1102,-2.111,-2.111,-2.111,-2.111,0,-2.0721,-2.0739,-2.0778,-2.0793,-2.0814,-2.0842,-2.0862,-2.0883,-2.091,-2.0929,-2.0952,-2.097,-2.1005,-2.1027,-2.1049,-2.1074,-2.1081,-2.1094,-2.1099,-2.1092,-2.109,-2.1102,-2.1103,-2.1111,-2.1111,-2.1111,-2.1111,0,-2.0708,-2.0735,-2.0763,-2.0801,-2.0811,-2.0825,-2.0858,-2.0873,-2.0895,-2.092,-2.0927,-2.0961,-2.0989,-2.1018,-2.1056,-2.107,-2.1095,-2.1103,-2.1085,-2.1088,-2.1092,-2.1092,-2.1101,-2.1104,-2.111,-2.111,-2.111,0,-2.0709,-2.0723,-2.0762,-2.0777,-2.0794,-2.0818,-2.0835,-2.0863,-2.0881,-2.0916,-2.0928,-2.0957,-2.0982,-2.1026,-2.1055,-2.1084,-2.1092,-2.1094,-2.1097,-2.1089,-2.1093,-2.1092,-2.1094,-2.1093,-2.1092,-2.1092,-2.1092,0,-2.0707,-2.0719,-2.0743,-2.0771,-2.0791,-2.0815,-2.084,-2.0851,-2.0884,-2.0903,-2.0931,-2.095,-2.0989,-2.1018,-2.105,-2.1071,-2.1087,-2.1091,-2.1094,-2.1087,-2.1076,-2.1082,-2.1082,-2.1091,-2.1091,-2.1091,-2.1091,-2.1091,-2.0701,-2.0715,-2.0745,-2.077,-2.0792,-2.0815,-2.0831,-2.0855,-2.0878,-2.0911,-2.0927,-2.0955,-2.0986,-2.1031,-2.1051,-2.1074,-2.1079,-2.1083,-2.1084,-2.1085,-2.1084,-2.1072,-2.108,-2.108,-2.1081,-2.1081,-2.1081,0,-2.07,-2.0721,-2.0744,-2.0778,-2.0798,-2.0811,-2.0839,-2.0856,-2.088,-2.0907,-2.0931,-2.0964,-2.0992,-2.1023,-2.1053,-2.1066,-2.1074,-2.1073,-2.1073,-2.1077,-2.1077,-2.1072,-2.1066,-2.1066,-2.1066,-2.1066,-2.1066,-2.1066,-2.0702,-2.0727,-2.0743,-2.0778,-2.0799,-2.0826,-2.0841,-2.0863,-2.0884,-2.0919,-2.0943,-2.0962,-2.0991,-2.1023,-2.105,-2.1059,-2.1069,-2.1066,-2.1076,-2.1076,-2.1077,-2.1078,-2.1073,-2.1067,-2.1067,-2.1074,-2.1074,-2.1074]}]]